User: anonymous   Login
Location: Famechon
(49.7599°N, 2.0615°E)
Time: 03:53:49
(UTC+00:00)
Language:

Cosmos 2058 Rocket - Orbit

View from above orbital plane
View from above orbital plane
View from above satellite
View from above satellite

Ground track
Ground track

The orbit data is extracted from the following two-line orbital elements,

1 20466U 90010B   23154.45451558  .00000527  00000-0  63455-4 0  9991
2 20466  82.5012 134.9158 0021178  29.8598 330.3819 14.81900592799842
Epoch (UTC): 03 June 2023 10:54:30
Eccentricity: 0.0021178
inclination: 82.5012°
perigee height: 608 km
apogee height: 638 km
right ascension of ascending node: 134.9158°
argument of perigee: 29.8598°
revolutions per day: 14.81900592
mean anomaly at epoch: 330.3819°
orbit number at epoch: 79984

The dashed part of the orbit path shows where the satellite is in the earth's shadow,  

DLR